Location: Elm Mott Branch
(32.1549°N, 97.5139°W)
Time: 10:23:29
(UTC+00:00)

Cosmos 1741 Rocket - Pass Details

Date: 18 November 2025
Orbit: 756 x 779 km, 74.0° (Epoch: 07 December)

Event Time Altitude Azimuth Distance (km) Brightness Sun altitude
Rises 12:22:23 0° 338° (NNW) 3,264 6.9 -8.7°
Reaches altitude 10° 12:24:49 10° 335° (NNW) 2,331 6.1 -8.2°
Maximum altitude 12:30:01 60° 257° (WSW) 888 4.1 -7.2°
Drops below altitude 10° 12:35:10 10° 178° (S) 2,309 6.8 -6.2°
Sets 12:37:33 0° 175° (S) 3,229 7.6 -5.7°
